Time,TemperatureF,DewpointF,PressureIn,WindDirection,WindDirectionDegrees,WindSpeedMPH,WindSpeedGustMPH,Humidity,HourlyPrecipIn,Conditions,Clouds,dailyrainin,SoftwareType,DateUTC
2013-06-14 18:53:00,69.1,40.3,29.85,WSW,245,8.6,8.6,35,0.43,,---,0.00,VWS V14.01,2013-06-14 22:53:00,
2013-06-14 18:55:00,68.9,40.2,29.85,WSW,237,5.7,10.0,35,0.00,,---,0.00,VWS V14.01,2013-06-14 22:55:00,
2013-06-14 18:57:00,68.9,40.2,29.85,SW,226,5.7,6.4,35,0.00,,---,0.00,VWS V14.01,2013-06-14 22:57:00,
2013-06-14 18:59:00,68.7,40.0,29.85,West,274,4.3,6.4,35,0.00,,---,0.00,VWS V14.01,2013-06-14 22:59:00,
2013-06-14 19:04:00,68.4,39.7,29.85,WNW,284,4.3,6.4,35,0.00,,---,0.00,VWS V14.01,2013-06-14 23:04:00,
2013-06-14 19:08:00,68.2,39.5,29.85,West,276,8.6,8.6,35,0.00,,---,0.00,VWS V14.01,2013-06-14 23:08:00,
2013-06-14 19:14:00,68.0,39.3,29.85,WNW,291,0.0,5.7,35,0.00,,---,0.00,VWS V14.01,2013-06-14 23:14:00,
2013-06-14 19:20:00,67.8,39.2,29.85,West,272,4.3,12.2,35,0.00,,---,0.00,VWS V14.01,2013-06-14 23:20:00,
2013-06-14 19:25:00,67.6,39.8,29.85,West,270,0.0,0.0,36,0.00,,---,0.00,VWS V14.01,2013-06-14 23:25:00,
2013-06-14 19:30:00,67.5,39.6,29.85,WSW,250,5.0,6.4,36,0.00,,---,0.00,VWS V14.01,2013-06-14 23:30:00,
2013-06-14 19:35:00,67.3,40.1,29.85,WSW,252,5.7,5.7,37,0.00,,---,0.00,VWS V14.01,2013-06-14 23:35:00,
2013-06-14 19:41:00,67.1,40.7,29.85,West,277,5.0,6.4,38,0.00,,---,0.00,VWS V14.01,2013-06-14 23:41:00,
2013-06-14 19:46:00,66.9,40.5,29.85,West,271,5.0,6.4,38,0.00,,---,0.00,VWS V14.01,2013-06-14 23:46:00,
2013-06-14 19:52:00,66.7,41.0,29.85,West,271,0.0,0.0,39,0.00,,---,0.00,VWS V14.01,2013-06-14 23:52:00,
2013-06-14 19:57:00,66.6,40.9,29.85,NW,309,4.3,4.3,39,0.00,,---,0.00,VWS V14.01,2013-06-14 23:57:00,
2013-06-14 20:03:00,66.2,41.2,29.85,West,274,0.0,0.0,40,0.00,,---,0.00,VWS V14.01,2013-06-15 00:03:00,
2013-06-14 20:08:00,66.0,41.7,29.85,North,353,0.0,0.0,41,0.00,,---,0.00,VWS V14.01,2013-06-15 00:08:00,
2013-06-14 20:14:00,65.8,41.5,29.85,North,353,0.0,0.0,41,0.00,,---,0.00,VWS V14.01,2013-06-15 00:14:00,
2013-06-14 20:20:00,65.7,42.0,29.85,North,353,0.0,0.0,42,0.00,,---,0.00,VWS V14.01,2013-06-15 00:20:00,
2013-06-14 20:26:00,65.5,42.4,29.85,North,353,0.0,0.0,43,0.00,,---,0.00,VWS V14.01,2013-06-15 00:26:00,
2013-06-14 20:31:00,65.3,42.2,29.85,North,353,0.0,0.0,43,0.00,,---,0.00,VWS V14.01,2013-06-15 00:31:00,
2013-06-14 20:37:00,65.1,42.1,29.85,North,353,0.0,0.0,43,0.00,,---,0.00,VWS V14.01,2013-06-15 00:37:00,
2013-06-14 20:42:00,65.1,42.1,29.85,North,353,0.0,0.0,43,0.00,,---,0.00,VWS V14.01,2013-06-15 00:42:00,
2013-06-14 20:48:00,64.8,42.4,29.85,North,353,0.0,0.0,44,0.00,,---,0.00,VWS V14.01,2013-06-15 00:48:00,
2013-06-14 20:54:00,64.2,42.5,29.85,North,353,0.0,0.0,45,0.00,,---,0.00,VWS V14.01,2013-06-15 00:54:00,
2013-06-14 20:59:00,64.2,42.5,29.85,North,353,0.0,0.0,45,0.00,,---,0.00,VWS V14.01,2013-06-15 00:59:00,
2013-06-14 21:05:00,63.9,42.1,29.85,North,353,0.0,0.0,45,0.00,,---,0.00,VWS V14.01,2013-06-15 01:05:00,
2013-06-14 21:10:00,63.9,42.1,29.85,North,353,0.0,0.0,45,0.00,,---,0.00,VWS V14.01,2013-06-15 01:10:00,
2013-06-14 21:16:00,63.5,42.4,29.85,North,353,0.0,0.0,46,0.00,,---,0.00,VWS V14.01,2013-06-15 01:16:00,
2013-06-14 21:21:00,63.1,42.6,29.88,North,353,0.0,0.0,47,0.00,,---,0.00,VWS V14.01,2013-06-15 01:21:00,
2013-06-14 21:26:00,63.1,42.6,29.88,North,353,0.0,0.0,47,0.00,,---,0.00,VWS V14.01,2013-06-15 01:26:00,
2013-06-14 21:32:00,63.0,43.5,29.88,North,353,0.0,0.0,49,0.00,,---,0.00,VWS V14.01,2013-06-15 01:32:00,
2013-06-14 21:37:00,62.8,43.9,29.88,North,353,0.0,0.0,50,0.00,,---,0.00,VWS V14.01,2013-06-15 01:37:00,
2013-06-14 21:43:00,62.8,44.4,29.88,North,353,0.0,0.0,51,0.00,,---,0.00,VWS V14.01,2013-06-15 01:43:00,
2013-06-14 21:48:00,62.8,44.4,29.88,North,353,0.0,0.0,51,0.00,,---,0.00,VWS V14.01,2013-06-15 01:48:00,
2013-06-14 21:54:00,62.8,44.4,29.88,North,353,0.0,0.0,51,0.00,,---,0.00,VWS V14.01,2013-06-15 01:54:00,
2013-06-14 22:00:00,62.8,44.4,29.88,North,353,0.0,0.0,51,0.00,,---,0.00,VWS V14.01,2013-06-15 02:00:00,
2013-06-14 22:05:00,62.8,44.4,29.88,North,353,0.0,0.0,51,0.00,,---,0.00,VWS V14.01,2013-06-15 02:05:00,
2013-06-14 22:11:00,62.8,44.4,29.88,North,353,0.0,0.0,51,0.00,,---,0.00,VWS V14.01,2013-06-15 02:11:00,
2013-06-14 22:16:00,62.8,44.4,29.88,North,353,0.0,0.0,51,0.00,,---,0.00,VWS V14.01,2013-06-15 02:16:00,